Devils Lake, ND

11:04 PM CDT on August 29, 2016 (GMT -0500)
Devils Lake Municipal

Weather History for KDVL - February, 2013

Change the Weather History Date:

Saturday, February 23, 2013

  Actual Average Record
Temperature  
Mean Temperature 8 °F -  
Max Temperature 21 °F 27 °F 53 °F (1958)
Min Temperature -2 °F 8 °F -21 °F (1950)
Degree Days  
Heating Degree Days 56    
Moisture  
Dew Point 2 °F    
Average Humidity 88    
Maximum Humidity 100    
Minimum Humidity 55    
Precipitation  
Precipitation 0.00 in - - ()
Sea Level Pressure  
Sea Level Pressure 29.79 in    
Wind  
Wind Speed 6 mph (SE)    
Max Wind Speed 14 mph    
Max Gust Speed -    
Visibility 10 miles    
Events      
Averages and records for this station are not official NWS values.
T = Trace of Precipitation, MM = Missing Value Source: NWS Daily Summary

Daily Weather History Graph

Daily Weather History Graph

Search for Another Location

Airport or City:

Trip Planner

Search our weather history database for the weather conditions in past years. The results will help you decide how hot, cold, wet, or windy it might be!

Date:

Astronomy

Feb. 23, 2013 Rise Set
Actual Time 7:27 AM CST 6:11 PM CST
Civil Twilight 6:56 AM CST 6:42 PM CST
Nautical Twilight 6:19 AM CST 7:18 PM CST
Astronomical Twilight 5:44 AM CST 7:54 PM CST
Moon 4:18 PM CST (2/23) 5:56 AM CST (2/23)
Length of Visible Light 11h 46m
Length of Day
10h 43m
Waxing Gibbous, 95% of the Moon is Illuminated
Feb 23
Waxing Gibbous
Feb 25
Full
Mar 4
Last Quarter
Mar 11
New
Mar 19
First Quarter

Hourly Weather History & Observations

Time (CST) Temp. Windchill Dew Point Humidity Pressure Visibility Wind Dir Wind Speed Gust Speed Precip Events Conditions
12:15 AM 3.2 °F -4.2 °F 3.2 °F 100% 29.84 in 10.0 mi ESE 3.5 mph - N/A   Clear
12:35 AM 1.4 °F - -4.0 °F 78% 29.84 in 10.0 mi Calm Calm - N/A   Clear
12:55 AM -0.4 °F -12.0 °F -13.0 °F 55% 29.83 in 10.0 mi ESE 5.8 mph - N/A   Clear
1:15 AM -2.2 °F -15.6 °F -2.2 °F 100% 29.82 in 10.0 mi ESE 6.9 mph - N/A   Clear
1:35 AM -0.4 °F -8.3 °F -0.4 °F 100% 29.82 in 10.0 mi SE 3.5 mph - N/A   Clear
1:55 AM 1.4 °F -11.3 °F -4.0 °F 78% 29.82 in 10.0 mi SE 6.9 mph - N/A   Clear
2:15 AM 1.4 °F -12.5 °F -9.4 °F 61% 29.81 in 10.0 mi SE 8.1 mph - N/A   Clear
2:35 AM 1.4 °F -14.5 °F 1.4 °F 100% 29.81 in 10.0 mi SE 10.4 mph - N/A   Clear
2:55 AM 1.4 °F -12.5 °F 1.4 °F 100% 29.82 in 10.0 mi SE 8.1 mph - N/A   Clear
3:15 AM 1.4 °F -12.5 °F -7.6 °F 66% 29.80 in 10.0 mi SE 8.1 mph - N/A   Clear
3:35 AM 1.4 °F -13.5 °F -2.2 °F 85% 29.80 in 10.0 mi SE 9.2 mph - N/A   Clear
3:55 AM -0.4 °F -8.3 °F -0.4 °F 100% 29.79 in 10.0 mi SE 3.5 mph - N/A   Clear
4:15 AM -0.4 °F -10.4 °F -0.4 °F 100% 29.79 in 10.0 mi SSE 4.6 mph - N/A   Clear
4:35 AM -0.4 °F -13.4 °F -9.4 °F 66% 29.78 in 10.0 mi SE 6.9 mph - N/A   Clear
4:55 AM 1.4 °F -9.9 °F 1.4 °F 100% 29.78 in 10.0 mi SE 5.8 mph - N/A   Clear
5:15 AM -0.4 °F -8.3 °F -0.4 °F 100% 29.78 in 10.0 mi South 3.5 mph - N/A   Clear
5:35 AM -0.4 °F - -9.4 °F 66% 29.77 in 10.0 mi Calm Calm - N/A   Clear
5:55 AM 1.4 °F -9.9 °F 1.4 °F 100% 29.77 in 10.0 mi SE 5.8 mph - N/A   Clear
6:15 AM -0.4 °F -8.3 °F -2.2 °F 92% 29.77 in 10.0 mi SE 3.5 mph - N/A   Clear
6:35 AM 1.4 °F - -2.2 °F 85% 29.78 in 10.0 mi Calm Calm - N/A   Clear
6:55 AM -0.4 °F -12.0 °F -0.4 °F 100% 29.78 in 10.0 mi SE 5.8 mph - N/A   Clear
7:15 AM 1.4 °F -12.5 °F 1.4 °F 100% 29.78 in 10.0 mi SE 8.1 mph - N/A   Clear
7:35 AM 1.4 °F -12.5 °F -4.0 °F 78% 29.78 in 10.0 mi SE 8.1 mph - N/A   Clear
7:55 AM 1.4 °F -11.3 °F -2.2 °F 85% 29.78 in 10.0 mi SE 6.9 mph - N/A   Clear
8:15 AM 1.4 °F -11.3 °F -0.4 °F 92% 29.78 in 10.0 mi SE 6.9 mph - N/A   Clear
8:35 AM 1.4 °F -12.5 °F 1.4 °F 100% 29.78 in 10.0 mi SE 8.1 mph - N/A   Clear
8:55 AM 3.2 °F -9.1 °F -0.4 °F 85% 29.78 in 10.0 mi SE 6.9 mph - N/A   Scattered Clouds
9:15 AM 3.2 °F -10.3 °F -0.4 °F 85% 29.78 in 10.0 mi SE 8.1 mph - N/A   Mostly Cloudy
9:35 AM 6.8 °F -5.9 °F -0.4 °F 72% 29.78 in 10.0 mi SE 8.1 mph - N/A   Overcast
9:55 AM 8.6 °F -3.7 °F 3.2 °F 79% 29.79 in 10.0 mi SSE 8.1 mph - N/A   Overcast
10:15 AM 10.4 °F -2.4 °F 8.6 °F 92% 29.79 in 6.0 mi SSE 9.2 mph - N/A   Overcast
10:35 AM 12.2 °F -1.0 °F 10.4 °F 92% 29.78 in 10.0 mi SSE 10.4 mph - N/A   Mostly Cloudy
10:55 AM 12.2 °F -0.2 °F 10.4 °F 92% 29.78 in 10.0 mi SE 9.2 mph - N/A   Clear
11:15 AM 14.0 °F -0.8 °F 14.0 °F 100% 29.78 in 10.0 mi SSE 13.8 mph - N/A   Clear
11:35 AM 15.8 °F 2.1 °F 12.2 °F 86% 29.78 in 10.0 mi SSE 12.7 mph - N/A   Clear
11:55 AM 17.6 °F 4.3 °F 15.8 °F 93% 29.78 in 10.0 mi SE 12.7 mph - N/A   Clear
12:15 PM 17.6 °F 4.3 °F 15.8 °F 93% 29.78 in 10.0 mi SSE 12.7 mph - N/A   Clear
12:35 PM 19.4 °F 7.2 °F 15.8 °F 86% 29.78 in 10.0 mi SSE 11.5 mph - N/A   Clear
12:55 PM 21.2 °F 10.1 °F 17.6 °F 86% 29.78 in 10.0 mi SSE 10.4 mph - N/A   Clear